Wetbulb
32.57 33.27 33.10 32.04 32.72 33.52 31.73 31.18 26.72 27.75 29.10 33.43 33.12 31.12 30.22 29.99 29.33 28.75 28.50 28.38 28.25 28.04 28.82 29.43 30.03 29.92 30.45 30.76 31.20 31.41 30.84 31.05 30.51 31.15 30.79 31.53 31.13 30.86 29.85 29.73 30.20 30.32 30.49 31.58
27.58 32.82 33.15 29.91 31.95 30.52 32.83 33.62 32.49 30.92 30.79 34.15 32.48 31.76 30.17 29.08 28.67 27.23 26.94 27.31 27.66 27.92 28.74 29.13 29.75 29.64 30.36 30.49 30.20 30.56 29.56 29.55 29.51 29.50 29.07 29.24 29.66 28.46 28.98 27.99 27.97 28.34 28.38 29.49
25.18 30.90 31.98 27.06 28.35 30.78 29.65 30.01 30.80 26.50 30.20 31.84 29.55 29.40 28.55 28.11 27.59 25.29 26.05 26.31 26.95 27.67 28.62 29.51 30.31 31.30 30.28 30.61 29.78 28.56 28.06 28.10 27.08 26.23 25.81 25.87 26.88 27.00 26.21 26.52 26.76 25.82 26.06 27.10
25.10 27.14 20.23 26.98 33.21 34.04 29.58 28.97 30.78 30.15 30.86 30.55 27.48 27.62 27.51 27.24 27.41 25.20 25.63 26.33 26.74 27.90 27.83 28.89 30.27 31.85 31.57 31.88 30.02 28.38 27.36 27.21 27.04 25.45 24.21 23.77 23.62 23.29 23.99 23.78 23.61 23.95 24.51 25.68
20.94 22.46 25.23 26.99 29.72 27.16 27.59 25.89 28.66 28.87 27.51 26.95 26.77 25.69 25.21 28.23 27.53 25.80 23.95 25.17 26.16 28.40 27.86 25.46 27.43 29.39 31.97 30.78 30.83 28.17 26.95 26.49 26.73 25.51 23.28 22.40 20.56 20.71 21.91 22.26 22.21 22.91 24.19 24.99
24.32 18.77 16.51 21.81 31.79 34.13 30.18 18.01 27.38 27.49 26.20 24.78 24.10 16.67 21.59 27.57 27.03 24.77 24.24 28.48 26.64 23.79 21.59 24.44 26.89 28.03 28.45 27.79 27.72 28.56 26.74 26.13 26.05 26.25 23.34 21.51 20.43 19.84 20.47 20.78 21.41 23.24 23.86 25.10
22.75 20.52 21.89 29.36 33.23 33.55 16.05 19.51 26.27 27.47 26.90 25.18 21.37 19.41 25.55 27.97 25.12 26.85 28.61 25.33 25.88 25.11 24.34 25.83 27.49 27.82 25.08 24.63 24.37 27.13 28.60 27.07 26.03 25.31 24.32 23.07 22.80 22.35 21.83 21.23 21.57 21.33 22.76 24.64
23.58 19.34 15.07 30.58 31.88 24.77 23.18 25.57 24.92 21.56 22.95 27.13 24.57 25.12 24.94 26.11 26.39 26.90 25.16 24.77 25.09 23.40 23.61 24.69 24.85 25.45 24.92 24.20 24.02 25.73 26.30 26.11 25.19 24.93 25.18 24.34 22.04 21.58 22.13 21.91 21.67 21.86 21.48 22.02
24.59 21.16 27.67 29.62 27.09 26.57 27.14 25.56 22.69 21.47 24.08 24.78 23.47 22.76 23.70 21.07 20.56 21.52 22.83 22.97 22.85 21.90 21.95 22.46 23.39 23.83 23.09 24.94 26.64 26.12 25.53 23.92 23.62 24.07 24.40 24.09 22.22 20.02 21.02 21.63 21.61 21.44 20.41 20.03
24.85 26.07 26.95 28.42 29.18 28.33 27.81 25.47 23.75 23.62 23.45 23.16 20.62 21.64 18.33 19.03 17.84 17.25 18.33 18.61 20.38 20.72 20.31 20.72 22.13 22.73 23.32 24.57 26.00 26.08 24.78 24.64 25.00 24.26 24.42 24.63 23.59 21.46 19.98 21.02 21.06 21.62 19.38 18.42
25.15 27.13 28.18 28.80 28.08 27.65 27.25 26.92 25.72 25.49 23.44 21.15 19.98 18.96 19.88 18.72 16.98 17.00 14.22 18.57 20.11 19.96 19.49 19.21 20.36 20.60 20.74 22.81 24.38 24.61 24.57 23.77 23.27 23.24 22.72 22.25 23.37 20.80 20.34 20.68 21.47 20.01 20.19 18.24
22.75 28.12 27.05 27.04 27.85 28.68 26.98 26.67 26.11 23.38 22.52 22.89 22.28 20.93 20.44 18.25 19.22 18.90 17.13 17.25 16.57 17.11 17.02 16.71 17.03 17.51 18.69 21.68 23.39 22.75 22.47 21.68 21.19 21.33 20.59 21.00 20.45 18.54 22.57 22.96 23.23 23.13 23.21 20.90
27.35 30.10 28.16 28.55 28.64 30.02 27.30 26.16 25.14 24.34 23.83 22.27 22.85 21.99 21.07 19.74 19.29 19.35 16.06 13.95 10.98 9.20 10.41 10.89 11.44 12.55 13.85 18.22 21.45 20.78 20.05 20.42 19.43 19.77 19.15 17.86 16.90 15.84 12.40 15.09 21.31 21.48 21.59 21.76
29.37 28.61 26.70 27.05 26.37 28.92 26.22 25.99 27.55 25.50 25.10 24.16 23.13 23.08 21.98 20.75 19.59 17.57 15.79 15.58 15.47 13.23 11.06 8.28 8.29 8.66 8.89 11.23 14.33 11.61 12.34 14.30 13.66 13.63 11.29 10.78 6.77 7.81 4.94 5.38 0.43 6.30 13.78 18.52
29.00 29.72 28.54 28.71 29.46 28.40 27.19 26.67 24.55 23.70 23.83 23.31 23.96 23.14 22.05 19.56 17.61 16.66 17.41 17.89 17.03 14.32 11.34 9.26 8.86 6.27 5.42 4.36 10.29 9.84 13.33 9.86 6.09 4.34 5.75 8.11 10.22 9.90 11.94 11.20 11.19 9.49 6.03 11.07
29.02 28.50 28.32 27.37 27.66 26.65 26.40 24.88 23.75 23.83 23.78 23.26 22.50 21.04 20.13 19.02 17.89 16.92 16.37 16.77 14.63 12.06 10.74 3.94 9.46 3.12 4.24 6.66 9.73 12.76 12.31 12.62 11.74 12.97 12.49 12.64 13.24 12.85 12.59 11.54 10.92 10.67 11.60 11.86
25.93 25.61 26.38 26.15 26.60 25.93 25.25 25.56 25.54 24.94 24.35 21.96 20.00 19.29 18.32 16.98 15.03 12.96 10.57 10.65 6.52 0.82 0.64 0.81 1.58 0.06 5.43 9.49 14.75 14.04 13.14 14.56 11.19 14.48 13.15 12.92 12.34 11.77 12.06 10.61 9.25 9.22 7.83 5.48
28.54 28.73 28.52 28.64 27.30 25.56 25.39 26.31 26.11 24.97 22.50 20.77 18.62 15.22 12.13 11.08 9.81 7.41 4.91 1.38 1.39 3.27 0.49 -0.20 -0.45 5.05 9.25 10.29 14.40 15.18 14.27 14.99 15.70 14.05 14.43 11.50 11.33 12.69 10.11 9.05 9.87 8.23 6.80 7.46
29.21 27.31 26.95 27.46 26.89 26.61 26.03 24.90 23.69 21.54 18.79 17.49 15.25 12.06 8.98 9.11 8.78 5.84 1.81 3.02 2.58 5.55 6.06 3.25 16.81 11.60 13.51 15.89 14.72 14.57 12.69 10.83 12.47 11.62 11.22 7.72 7.17 8.86 6.82 6.17 6.01 4.98 4.51 5.84
27.01 27.39 27.20 26.98 27.32 26.55 24.07 21.95 20.33 18.60 17.31 15.31 12.40 10.40 8.13 5.59 7.02 6.06 3.08 6.51 6.25 7.37 6.27 10.04 13.90 13.51 14.17 13.61 12.29 12.51 10.21 7.06 10.27 7.28 4.54 4.67 -0.20 -2.30 0.93 1.83 2.99 2.81 3.35 5.21
24.06 24.49 24.29 25.35 25.24 24.43 22.44 20.65 18.78 16.47 15.39 15.16 13.21 11.63 10.74 6.45 6.19 5.60 6.81 11.54 9.76 9.71 13.52 11.27 11.63 10.92 12.15 11.36 10.67 3.06 3.29 1.18 -0.04 -1.03 -5.73 -8.45 -8.27 -5.01 -5.94 -5.43 -4.13 -2.67 0.74 2.97
23.21 23.74 23.20 22.85 22.18 20.82 21.34 20.72 19.08 16.91 16.13 14.85 13.79 12.99 9.95 7.32 5.88 6.12 6.09 12.50 14.16 8.78 13.08 12.31 10.85 3.82 8.66 8.45 7.82 1.20 3.21 1.85 -1.66 -3.05 -5.37 -7.18 -7.36 -10.45 -11.72 -11.53 -10.46 -6.90 -3.44 -0.13
22.16 23.50 23.26 22.05 20.91 19.31 19.34 18.77 18.03 17.17 15.29 13.76 13.01 13.09 13.71 13.88 14.96 14.29 13.88 15.07 15.40 9.93 13.43 10.22 4.54 0.60 1.15 0.78 -2.36 -5.73 -5.02 -6.47 -8.45 -10.99 -12.62 -12.80 -15.16 -18.06 -17.88 -16.61 -14.80 -15.34 -11.72 -6.13
21.31 22.26 20.63 19.69 19.45 18.98 16.96 17.62 18.14 17.21 15.61 14.38 13.89 14.48 15.80 14.93 12.26 17.74 15.37 11.15 10.67 8.92 9.84 6.68 1.66 -0.49 -2.67 -4.83 -7.00 -7.38 -9.54 -14.07 -16.61 -17.88 -12.80 -16.43 -22.23 -22.96 -22.05 -24.41 -19.51 -17.52 -14.98 -11.93
20.48 20.15 19.79 19.76 20.03 19.57 18.53 18.90 17.71 16.62 16.19 15.79 15.83 16.16 18.26 19.07 13.87 12.80 12.68 9.27 11.68 10.35 5.40 -0.14 -1.02 -3.94 -6.12 -9.00 -8.48 -11.90 -16.79 -18.79 -20.42 -20.60 -22.23 -23.32 -24.59 -26.58 -27.31 -26.76 -26.04 -24.41 -18.06 -19.69
21.56 20.88 21.46 22.68 21.38 20.15 19.57 18.92 16.78 16.91 17.77 16.04 14.97 14.91 12.71 15.16 14.08 12.34 9.93 9.63 10.29 7.09 6.03 -0.61 -3.97 -7.57 -8.83 -8.83 -12.62 -16.43 -17.34 -14.43 -18.79 -20.78 -23.32 -24.22 -25.67 -24.77 -28.03 -25.67 -26.94 -25.31 -24.41 -22.59
22.46 22.02 21.76 20.69 20.80 20.59 19.90 18.84 16.81 16.73 17.18 15.85 13.80 4.78 11.56 11.05 11.22 11.76 10.36 10.26 8.64 6.84 3.53 -2.50 -5.41 -7.38 -9.03 -11.74 -14.25 -17.70 -18.79 -19.87 -20.60 -21.15 -27.31 -27.67 -28.39 -30.57 -30.75 -30.39 -30.39 -28.94 -28.94 -27.49
MSLP
1012.04 1011.79 1011.59 1011.40 1010.98 1010.79 1010.67 1011.19 1012.35 1012.56 1013.36 1014.05 1015.35 1016.93 1018.61 1019.93 1020.87 1021.30 1021.70 1021.97 1022.05 1022.07 1021.98 1021.98 1022.15 1021.87 1021.53 1020.92 1020.40 1019.62 1018.64 1018.65 1018.45 1017.86 1017.06 1016.55 1016.21 1015.52 1014.99 1014.32 1013.53 1012.86 1011.98 1010.96
1012.42 1011.92 1011.51 1011.24 1011.00 1010.47 1010.26 1010.90 1011.81 1012.59 1014.03 1014.87 1016.36 1017.64 1019.16 1020.31 1021.17 1021.87 1022.35 1022.67 1022.91 1022.99 1023.02 1022.85 1022.41 1022.25 1021.90 1021.37 1020.83 1020.13 1019.87 1019.54 1019.40 1018.56 1017.85 1017.94 1016.96 1016.31 1015.70 1015.00 1014.14 1013.35 1012.56 1011.86
1012.58 1012.07 1011.97 1011.30 1010.48 1010.50 1011.03 1011.69 1012.07 1013.13 1013.69 1015.54 1017.21 1018.36 1019.74 1020.80 1021.75 1022.62 1022.99 1023.38 1023.42 1023.48 1023.39 1023.17 1022.95 1022.67 1022.24 1021.87 1021.45 1020.67 1020.40 1020.26 1019.84 1019.36 1019.03 1018.46 1017.68 1017.05 1016.49 1015.77 1015.00 1014.35 1013.61 1012.93
1012.81 1012.75 1012.14 1010.99 1010.68 1010.89 1011.73 1012.71 1013.00 1013.56 1014.74 1016.18 1017.91 1019.29 1020.50 1021.48 1022.20 1022.98 1023.40 1023.70 1023.88 1024.03 1023.80 1023.57 1023.47 1023.04 1022.70 1022.09 1021.72 1021.47 1021.27 1021.11 1020.62 1020.23 1019.76 1019.47 1018.76 1018.38 1017.83 1017.34 1016.48 1015.72 1014.68 1013.80
1013.29 1012.88 1012.35 1011.79 1011.71 1011.99 1012.15 1013.72 1014.19 1015.00 1016.39 1017.74 1019.14 1020.28 1021.43 1021.97 1022.50 1023.04 1023.58 1024.00 1024.14 1024.09 1024.14 1024.03 1023.61 1023.14 1022.61 1022.32 1022.14 1022.02 1021.86 1021.59 1021.29 1021.04 1020.91 1020.35 1020.00 1019.68 1019.05 1018.23 1017.43 1016.56 1015.43 1014.57
1013.47 1013.34 1012.58 1011.85 1011.75 1012.12 1012.74 1014.24 1014.96 1015.87 1017.22 1018.39 1019.66 1020.80 1021.59 1022.14 1022.71 1023.35 1023.69 1023.95 1024.25 1024.37 1024.31 1024.02 1023.88 1023.54 1023.26 1023.04 1022.84 1022.66 1022.62 1022.48 1022.26 1021.93 1021.61 1021.26 1020.93 1020.34 1019.79 1019.05 1018.44 1017.63 1016.68 1015.92
1013.32 1013.34 1012.64 1012.19 1012.34 1012.89 1014.36 1015.47 1015.64 1016.72 1017.71 1018.93 1019.96 1020.56 1021.28 1022.33 1023.17 1023.63 1024.01 1024.37 1024.61 1024.72 1024.76 1024.72 1024.46 1024.17 1023.94 1023.86 1023.70 1023.43 1023.18 1023.04 1022.73 1022.45 1022.06 1021.81 1021.48 1020.84 1020.29 1019.88 1019.24 1018.57 1017.57 1016.91
1013.49 1013.84 1013.59 1012.75 1013.34 1014.14 1014.97 1015.68 1016.59 1017.64 1018.40 1019.25 1020.44 1021.30 1022.08 1022.94 1023.61 1024.03 1024.52 1024.90 1025.16 1025.33 1025.47 1025.37 1025.18 1024.86 1024.69 1024.46 1024.29 1023.90 1023.60 1023.32 1023.24 1023.09 1022.88 1022.56 1022.11 1021.63 1021.11 1020.49 1019.77 1019.23 1018.52 1017.96
1013.00 1013.31 1013.43 1013.70 1014.14 1014.65 1015.23 1016.30 1017.59 1018.29 1018.95 1019.62 1020.83 1021.89 1022.85 1023.75 1024.35 1024.76 1025.18 1025.55 1025.70 1025.80 1025.98 1025.93 1025.76 1025.58 1025.36 1025.01 1024.52 1024.22 1023.92 1023.91 1023.78 1023.57 1023.34 1023.12 1022.78 1022.48 1021.76 1021.07 1020.49 1020.29 1019.93 1019.55
1013.15 1013.82 1014.10 1014.50 1014.98 1015.43 1016.07 1016.92 1017.98 1018.80 1019.63 1020.38 1021.24 1022.55 1023.63 1024.40 1025.14 1025.57 1025.89 1026.09 1026.23 1026.39 1026.54 1026.53 1026.43 1026.26 1025.98 1025.46 1024.91 1024.55 1024.47 1024.41 1024.21 1024.07 1023.90 1023.67 1023.50 1023.14 1022.77 1022.22 1021.83 1021.44 1021.31 1021.07
1013.37 1013.99 1014.60 1015.14 1015.52 1016.04 1016.90 1017.60 1018.50 1019.46 1020.15 1021.03 1021.90 1023.14 1023.92 1024.87 1025.64 1026.03 1026.36 1026.61 1026.69 1026.86 1027.16 1027.34 1027.21 1026.83 1026.41 1025.92 1025.50 1025.21 1025.12 1025.05 1024.95 1024.86 1024.66 1024.46 1024.37 1024.07 1023.72 1023.54 1023.10 1022.77 1022.63 1022.56
1011.91 1012.28 1013.26 1014.23 1015.50 1016.23 1017.02 1017.93 1018.91 1019.76 1020.86 1021.73 1022.32 1023.24 1024.17 1025.03 1025.68 1026.26 1026.72 1027.08 1027.35 1027.74 1028.14 1028.18 1027.82 1027.45 1027.12 1026.71 1026.30 1026.03 1025.98 1025.96 1025.89 1025.73 1025.58 1025.37 1025.35 1025.24 1024.87 1024.57 1024.25 1023.86 1023.42 1023.26
1011.48 1012.46 1013.33 1014.34 1015.48 1016.27 1017.20 1018.24 1019.30 1020.06 1020.99 1021.79 1022.70 1023.34 1024.28 1025.07 1025.96 1026.49 1027.23 1027.95 1028.47 1028.85 1028.91 1028.70 1028.48 1028.35 1028.14 1027.61 1027.21 1027.01 1027.00 1026.97 1026.80 1026.66 1026.68 1026.66 1026.63 1026.59 1026.40 1025.89 1025.30 1024.93 1024.57 1024.09
1012.26 1013.05 1014.62 1015.05 1015.58 1016.35 1017.49 1018.63 1019.49 1020.45 1021.38 1022.09 1022.85 1023.65 1024.47 1025.33 1026.14 1026.90 1027.81 1028.62 1029.06 1029.24 1029.25 1029.32 1029.21 1029.15 1028.87 1028.52 1028.10 1028.03 1028.05 1028.03 1027.97 1027.95 1027.92 1027.75 1027.67 1027.73 1027.45 1027.16 1026.86 1026.45 1026.04 1025.39
1012.88 1012.94 1013.80 1014.87 1015.78 1016.79 1017.92 1018.83 1019.82 1020.81 1021.57 1022.48 1023.29 1023.93 1024.69 1025.52 1026.40 1027.43 1028.32 1028.93 1029.37 1029.59 1029.91 1029.98 1029.89 1029.97 1029.49 1029.13 1028.87 1028.76 1028.64 1028.73 1028.68 1028.62 1028.44 1028.15 1027.99 1027.96 1027.98 1027.62 1027.42 1027.43 1027.10 1026.71
1013.38 1013.74 1014.51 1015.21 1016.11 1017.11 1018.04 1019.02 1019.87 1020.76 1021.57 1022.63 1023.41 1024.37 1025.12 1025.92 1026.96 1028.00 1028.75 1029.30 1029.83 1030.63 1030.90 1030.79 1030.80 1030.47 1029.89 1029.44 1029.22 1029.14 1029.17 1029.34 1029.18 1029.06 1028.93 1028.76 1028.55 1028.58 1028.53 1028.37 1028.25 1028.06 1027.73 1027.47
1013.87 1014.76 1015.13 1015.65 1016.36 1017.23 1018.07 1019.03 1019.88 1020.67 1021.68 1022.70 1023.74 1024.79 1025.85 1026.76 1027.73 1028.68 1029.42 1030.07 1030.86 1031.31 1031.22 1031.20 1031.09 1030.65 1030.17 1029.67 1029.41 1029.61 1029.72 1029.74 1029.60 1029.49 1029.49 1029.40 1029.27 1029.29 1029.24 1029.09 1028.96 1028.69 1028.35 1027.91
1013.49 1014.30 1015.02 1015.64 1016.45 1017.41 1018.38 1019.19 1020.05 1021.05 1022.00 1022.99 1024.20 1025.47 1026.62 1027.48 1028.15 1029.25 1030.06 1030.74 1031.28 1031.48 1031.39 1031.27 1031.00 1030.49 1030.20 1029.96 1029.85 1030.04 1030.20 1030.33 1030.19 1030.11 1030.06 1030.14 1030.10 1030.04 1030.02 1029.89 1029.71 1029.47 1029.06 1028.41
1014.20 1014.95 1015.60 1016.22 1016.95 1017.83 1018.73 1019.64 1020.55 1021.57 1022.64 1023.61 1024.79 1026.19 1027.23 1028.06 1028.53 1029.53 1030.39 1030.93 1031.39 1031.83 1031.76 1031.23 1030.90 1030.68 1030.58 1030.09 1030.31 1030.61 1030.94 1031.06 1030.96 1030.98 1030.96 1031.03 1031.10 1030.97 1030.88 1030.71 1030.49 1030.11 1029.72 1029.18
1015.07 1015.63 1016.21 1016.93 1017.58 1018.34 1019.40 1020.32 1021.22 1022.23 1023.24 1024.17 1025.42 1026.68 1027.90 1028.70 1029.04 1029.90 1030.49 1030.97 1031.32 1031.36 1031.19 1031.21 1031.04 1031.13 1030.90 1030.84 1031.11 1031.26 1031.73 1031.77 1031.78 1031.93 1032.09 1032.14 1032.27 1032.31 1032.04 1031.76 1031.43 1031.01 1030.48 1029.95
1015.88 1016.42 1017.00 1017.64 1018.53 1019.21 1020.07 1021.04 1021.81 1022.85 1023.87 1024.57 1025.39 1026.63 1027.74 1028.73 1029.25 1029.79 1030.64 1030.79 1030.81 1031.02 1031.17 1031.25 1031.36 1031.50 1031.41 1031.56 1031.65 1032.13 1032.61 1032.67 1032.88 1033.21 1033.37 1033.53 1033.43 1033.35 1033.25 1032.89 1032.42 1031.94 1031.46 1030.88
1016.68 1017.14 1017.87 1018.47 1019.25 1020.13 1020.78 1021.54 1022.42 1023.40 1024.27 1025.11 1025.92 1026.81 1027.90 1028.82 1029.24 1029.60 1029.97 1030.00 1030.32 1030.80 1031.20 1031.47 1031.70 1032.34 1032.08 1032.13 1032.43 1033.13 1033.48 1033.53 1033.83 1033.98 1034.18 1034.21 1034.35 1034.50 1034.35 1033.99 1033.66 1033.08 1032.46 1031.86
1017.41 1017.90 1018.49 1019.15 1019.82 1020.61 1021.45 1022.12 1022.91 1023.70 1024.62 1025.34 1025.96 1026.80 1027.49 1028.10 1028.55 1028.99 1029.62 1029.94 1030.21 1030.76 1031.31 1031.86 1032.32 1032.87 1033.00 1033.18 1033.76 1034.13 1034.18 1034.35 1034.70 1034.96 1035.15 1035.19 1035.28 1035.29 1035.22 1035.05 1034.58 1034.03 1033.43 1032.85
1017.99 1018.53 1019.10 1019.79 1020.42 1021.09 1021.90 1022.72 1023.35 1024.16 1024.89 1025.53 1026.08 1026.69 1027.22 1028.01 1028.56 1028.75 1029.00 1029.67 1030.34 1030.94 1031.57 1032.19 1032.87 1033.31 1033.53 1034.10 1034.81 1034.82 1034.93 1035.28 1035.58 1035.77 1035.94 1036.10 1036.22 1036.23 1036.10 1035.84 1035.34 1034.76 1034.20 1033.78
1018.35 1018.91 1019.50 1020.11 1020.70 1021.40 1022.14 1022.91 1023.74 1024.55 1025.19 1025.77 1026.37 1026.87 1027.20 1027.64 1028.01 1028.95 1029.40 1030.02 1030.64 1031.35 1032.15 1032.91 1033.38 1033.80 1034.24 1034.79 1035.19 1035.46 1035.84 1036.13 1036.47 1036.55 1036.85 1036.94 1037.08 1037.06 1036.93 1036.66 1036.13 1035.54 1034.66 1034.38
1018.61 1019.10 1019.62 1020.09 1020.63 1021.38 1022.16 1022.94 1023.66 1024.48 1025.07 1025.87 1026.62 1027.00 1027.46 1027.87 1028.42 1029.19 1029.86 1030.41 1031.11 1031.91 1032.66 1033.36 1033.86 1034.34 1034.74 1034.98 1035.37 1035.79 1036.07 1036.07 1036.53 1036.80 1037.01 1037.05 1037.05 1036.84 1036.92 1036.39 1036.11 1035.60 1035.11 1034.57
1018.90 1019.35 1019.88 1020.53 1021.11 1021.64 1022.25 1022.89 1023.64 1024.38 1025.10 1025.86 1026.81 1027.76 1027.89 1028.42 1029.08 1029.72 1030.29 1030.99 1031.76 1032.48 1033.18 1033.77 1034.14 1034.60 1034.97 1035.32 1035.73 1036.12 1036.39 1036.67 1036.81 1036.99 1037.38 1037.33 1037.25 1037.25 1037.02 1036.64 1036.21 1035.67 1035.21 1034.79
Wind_Speed
5 5 2 4 13 14 15 12 8 6 10 16 15 14 13 10 8 6 6 7 8 8 9 9 8 8 9 10 9 10 12 11 12 12 13 13 13 13 13 13 14 15 16 16
4 10 9 10 14 8 13 15 12 7 7 11 13 13 10 9 8 6 5 6 7 6 6 6 9 8 8 10 10 10 10 11 11 11 13 13 13 13 13 14 14 15 17 17
7 4 7 7 10 11 3 1 7 7 7 16 15 13 10 9 7 7 6 5 5 4 5 6 7 7 7 8 8 10 11 11 12 12 12 13 14 15 16 16 15 15 17 17
1 3 8 1 3 4 7 2 3 8 16 14 11 11 9 6 9 7 5 5 4 3 5 6 6 5 6 7 9 10 10 11 11 12 13 13 13 14 14 12 13 13 15 17
3 4 2 2 4 6 5 4 0 11 14 15 13 11 5 6 5 6 6 3 3 5 5 3 7 8 5 6 6 10 11 12 12 12 12 13 14 13 11 11 12 13 13 17
3 3 6 5 3 5 3 4 8 10 16 18 11 4 4 8 6 5 4 4 6 4 3 7 8 8 8 8 8 9 10 10 10 10 11 11 10 10 9 9 10 10 13 15
5 4 4 2 5 3 6 7 5 9 14 15 5 3 11 10 5 5 6 7 6 6 7 7 7 6 7 7 8 7 7 8 10 10 11 10 9 9 10 9 10 12 14 14
4 3 7 2 3 6 4 4 6 4 4 10 12 13 11 9 7 8 9 7 6 6 6 6 7 6 8 7 4 6 7 8 8 9 8 8 10 10 10 11 12 13 14 13
4 5 1 2 2 3 4 6 3 6 7 14 16 13 10 7 7 7 7 4 4 5 5 6 6 7 7 8 7 7 8 7 6 5 7 7 10 11 10 12 12 11 12 12
3 3 3 4 5 5 6 9 8 11 12 13 16 12 10 9 7 5 4 5 5 6 6 8 7 7 6 8 7 8 9 9 8 8 8 8 8 8 9 11 11 11 11 11
3 5 6 4 5 10 11 12 13 11 11 12 14 11 11 9 7 6 4 4 6 7 7 6 6 7 7 9 8 7 8 8 8 7 8 7 9 9 9 11 14 10 9 9
6 11 4 9 10 14 14 13 12 13 11 10 12 11 11 8 6 6 6 5 6 7 6 5 7 8 9 8 8 7 7 6 6 6 6 6 6 7 17 19 21 22 23 17
4 11 4 14 13 12 13 12 11 12 11 13 10 11 10 10 8 11 9 7 5 3 1 4 6 6 6 8 7 8 6 8 6 7 7 7 6 5 6 7 17 19 21 23
14 19 12 10 8 12 13 12 15 11 10 10 11 11 11 11 11 10 8 6 6 4 6 5 5 6 6 6 6 6 5 7 5 5 4 4 4 4 2 2 2 5 9 15
3 4 10 13 15 14 14 13 14 12 12 11 10 11 11 11 10 9 8 8 8 8 6 4 6 6 5 3 6 6 6 4 4 3 3 4 3 3 4 5 5 3 4 6
8 13 15 16 15 15 14 14 13 13 13 11 11 10 11 11 11 8 8 6 6 5 3 4 5 4 4 3 4 5 5 6 4 4 4 5 5 5 6 6 5 5 5 5
14 10 13 14 14 15 14 12 11 13 13 12 12 12 12 11 10 9 7 7 5 2 1 2 1 4 1 4 7 4 3 3 5 5 5 4 4 5 5 4 4 4 4 3
6 8 9 12 14 13 12 11 12 13 12 13 12 10 9 7 10 8 6 4 4 5 3 3 3 2 6 5 6 4 4 3 4 5 5 6 5 5 5 5 5 5 4 4
9 9 9 11 11 11 11 11 11 11 12 13 13 10 7 7 10 7 6 6 6 5 2 3 5 6 5 6 6 4 4 4 5 5 5 5 5 6 5 6 7 7 6 7
8 9 10 9 10 11 10 8 11 11 10 11 12 11 9 6 8 8 3 6 4 3 1 2 5 5 5 6 6 4 4 4 5 4 5 5 4 4 5 7 7 6 7 8
9 10 11 12 10 10 10 10 11 11 9 11 13 12 11 6 6 7 5 5 4 4 4 6 5 3 3 4 5 4 3 4 4 4 3 3 4 4 4 5 5 5 7 6
7 10 9 11 10 9 9 10 10 10 10 9 9 11 10 7 6 3 1 4 4 6 4 4 3 4 4 6 5 3 3 4 4 3 4 3 4 4 4 4 5 5 6 6
7 8 9 10 11 10 9 9 10 11 10 9 11 11 10 7 6 6 5 4 4 5 5 4 5 6 6 5 4 3 4 5 4 3 3 3 3 3 3 3 4 4 5 5
8 8 8 8 11 10 10 6 9 8 7 8 8 8 9 6 1 2 4 7 9 7 5 5 5 6 6 4 3 3 4 4 3 3 3 4 3 3 3 3 4 4 4 4
8 8 9 10 9 6 10 10 9 9 9 9 10 7 6 4 4 3 5 5 10 8 5 6 7 7 5 3 4 4 3 3 3 3 3 3 2 2 3 3 3 3 3 3
9 6 6 6 6 7 8 8 8 7 7 6 3 4 4 4 6 6 5 7 8 7 6 4 4 4 4 4 4 4 3 3 3 3 3 2 2 2 3 3 3 3 3 3
6 7 6 6 5 7 7 8 9 8 7 7 6 1 6 6 6 6 7 6 6 6 5 4 4 4 4 4 4 3 3 3 3 3 1 1 2 2 3 3 3 3 3 3
Wind_Direction
241 224 209 279 255 235 206 206 194 195 178 172 164 147 136 131 116 95 69 49 36 20 22 17 17 12 6 9 9 7 18 15 9 5 14 11 12 13 11 14 15 13 9 8
270 229 221 243 236 242 224 214 227 131 126 129 120 123 131 136 123 110 99 79 66 53 43 23 23 20 13 15 11 12 19 20 10 11 17 7 5 10 8 13 14 13 13 10
251 203 238 245 239 221 124 11 142 173 170 148 152 142 139 131 134 130 129 116 101 67 45 37 14 12 13 21 20 28 25 18 15 13 11 7 11 12 9 8 8 12 13 10
120 110 226 72 351 220 130 88 101 105 142 146 131 108 100 117 136 131 129 121 108 73 69 41 26 12 20 31 35 32 31 22 23 20 22 13 14 12 9 2 6 7 13 11
191 219 355 214 201 161 170 205 124 129 127 123 121 111 101 117 106 117 126 125 82 54 45 358 15 1 22 28 47 39 31 24 18 24 20 21 18 7 3 4 3 5 13 16
159 226 224 232 145 135 115 294 175 146 151 153 153 135 159 145 119 103 112 103 79 40 5 30 11 8 29 31 31 42 36 27 20 23 27 23 10 7 358 9 8 4 14 20
217 249 286 207 141 139 97 235 126 147 155 160 170 211 134 124 111 131 107 89 67 52 42 25 10 10 30 35 31 27 38 38 29 22 29 18 8 12 11 7 15 16 18 16
197 200 264 117 116 179 182 38 105 91 120 141 122 118 118 121 124 124 107 91 76 65 44 29 18 28 35 37 356 23 33 33 30 23 21 16 21 16 16 17 23 23 22 19
175 210 50 14 113 120 111 123 123 114 134 135 131 125 121 116 105 102 106 101 93 86 69 38 27 30 35 9 32 32 35 25 15 15 16 17 28 22 21 21 22 25 21 18
133 165 134 91 81 100 116 119 118 122 127 130 126 124 118 115 106 103 94 97 92 85 68 52 35 36 29 21 16 35 34 28 24 23 25 23 42 34 29 27 22 25 27 19
79 129 121 159 133 125 117 117 118 120 125 128 126 128 127 123 118 112 98 87 92 90 73 48 29 31 20 15 13 37 39 31 28 26 25 27 45 38 38 30 34 25 35 23
216 180 147 160 147 141 131 132 132 128 128 132 134 131 130 124 124 119 101 79 75 71 74 47 39 33 15 7 15 33 48 37 26 32 31 36 36 39 35 42 42 40 36 39
181 132 108 133 139 143 127 130 135 130 136 136 133 132 130 122 124 113 96 85 79 95 89 43 36 35 4 11 32 53 50 51 42 41 38 37 35 36 31 3 33 37 36 31
105 107 106 141 149 132 125 134 132 123 130 130 134 130 129 128 122 116 110 115 112 92 65 44 39 33 357 354 54 51 55 51 50 37 21 22 30 22 31 24 337 353 1 27
117 87 133 127 132 129 133 133 134 139 137 136 139 138 137 132 120 118 129 122 102 79 53 43 52 12 338 5 66 57 55 35 25 10 359 24 13 11 18 18 16 4 340 355
104 119 131 140 141 142 145 148 148 150 144 144 139 135 128 117 117 116 116 119 104 89 57 48 51 308 314 50 61 54 51 48 44 35 24 24 26 25 21 15 8 1 6 1
117 136 150 151 157 156 157 156 155 151 146 142 134 127 125 121 112 107 92 85 102 113 59 81 254 288 347 59 66 51 39 27 29 37 29 18 23 21 8 6 357 347 338 329
125 144 151 151 150 154 153 153 148 146 149 136 127 122 122 139 132 125 120 110 85 63 36 254 235 59 48 46 56 50 39 15 26 26 30 24 12 13 9 358 352 348 328 319
135 132 129 137 144 145 143 142 142 130 130 134 132 137 129 135 130 125 127 114 101 106 276 289 73 60 49 48 61 52 45 36 41 37 29 25 26 20 15 10 360 355 345 339
111 121 125 125 127 133 121 118 129 125 130 122 118 123 127 136 134 136 136 142 171 187 187 92 69 59 54 53 56 63 51 45 47 41 36 32 26 24 15 10 6 1 355 2
126 124 125 125 123 123 127 134 131 131 132 137 138 142 147 148 142 141 150 154 212 184 132 92 77 55 58 78 75 66 62 65 59 55 46 40 34 23 13 3 355 351 352 356
129 129 126 127 127 118 129 129 122 125 130 125 121 128 133 143 147 142 199 163 159 148 118 94 85 76 83 81 80 73 72 68 63 45 38 35 48 34 14 5 355 340 341 344
114 123 127 133 135 127 117 123 131 137 141 146 145 148 156 160 165 152 162 178 129 135 119 98 108 98 95 86 87 90 83 75 70 62 58 57 48 39 16 350 338 337 338 345
118 118 111 110 121 124 126 124 128 129 133 140 142 147 148 149 93 105 114 123 123 116 114 128 110 110 96 95 92 90 79 83 81 67 69 62 45 21 9 344 343 334 340 353
123 124 129 137 139 137 133 136 127 138 141 142 148 163 162 164 145 149 124 117 130 117 110 105 112 106 97 98 100 93 95 101 100 97 83 70 31 3 335 336 327 322 326 344
140 142 143 141 137 138 141 144 143 149 146 135 118 126 103 105 109 116 116 118 116 119 120 116 114 104 106 112 106 100 103 105 95 82 85 52 8 349 330 325 327 332 317 317
122 129 128 119 128 143 147 150 151 158 146 141 128 99 118 109 114 115 114 111 113 113 112 113 114 118 123 116 104 99 108 107 106 102 72 7 332 298 309 302 303 312 311 329